Regional Weather Roundup
Issued by NWS Jackson, KY

Home | Current Version | Previous Version | Text Only | Print | Product List | Glossary On
Versions: 1 2 3 4 5 6 7 8 9 10 11 12 13 14 15 16 17 18 19 20 21 22 23 24 25 26 27 28
000
ASUS43 KJKL 282310
RWRJKL

EAST KENTUCKY HOURLY WEATHER ROUNDUP
NATIONAL WEATHER SERVICE JACKSON KY
700 PM EDT SUN MAY 28 2017

NOTE: "FAIR" INDICATES FEW OR NO CLOUDS BELOW 12,000 FEET WITH
NO SIGNIFICANT WEATHER AND/OR OBSTRUCTIONS TO VISIBILITY.

* THESE REPORTS ARE NOT UNDER NWS QUALITY CONTROL AND MAY NOT
  REPORT WEATHER SUCH AS PRECIPITATION AND FOG.

KYZ079-080-083-085-087-088-110-112-115-119-120-290000
...EASTERN KENTUCKY...

CITY           SKY/WX    TMP DP  RH WIND       PRES   REMARKS
JACKSON        CLOUDY    71  60  68 CALM      29.88R
LONDON         SUNNY     74  59  59 W14       29.90S
SOMERSET*      MOSUNNY   73  61  64 W10       29.90S
MONTICELLO*    PTSUNNY   75  63  66 W16       29.91F
WILLIAMSBURG*  PTCLDY    75  63  64 W3        29.91S
MIDDLESBORO*   CLOUDY    75  61  62 W3        29.91S
HARLAN APT*    MOCLDY    72  57  60 SW3       29.92S
PIKE CO APT*     N/A     72  62  71 SW6       29.87F
BIG SANDY APT* PTCLDY    73  63  71 W7        29.86S
MOREHEAD APT*  CLOUDY    73  61  64 SW13G22   29.85S
ASHLAND*       PTSUNNY   75  66  73 SW8       29.79F
$$

KYZ035-036-041-042-044-050-067-078-099-290000
...CENTRAL KENTUCKY...

CITY           SKY/WX    TMP DP  RH WIND       PRES   REMARKS
MT STERLING*   CLOUDY    70  61  73 W9        29.86S
FLEMING/MASON* CLOUDY    72  62  72 SW13G18   29.83S
DANVILLE*      CLOUDY    72  64  78 CALM      29.88S
LEXINGTON      MOSUNNY   72  62  71 W12       29.84F
FRANKFORT      MOSUNNY   72  64  76 W6        29.82F
LOUISVILLE     PTSUNNY   76  63  64 SW13      29.82S
LEBANON*       MOCLDY    72  63  73 W7        29.87S
GLASGOW*       CLOUDY    73  62  69 W7        29.88S
BOWLING GREEN  CLOUDY    75  65  70 W7        29.88S
$$

KYZ091>093-OHZ055-061-077-WVZ005-015-034-035-042-290000
...SOUTHERN OHIO/WEST VIRGINIA...

CITY           SKY/WX    TMP DP  RH WIND       PRES   REMARKS
COVINGTON      MOSUNNY   73  62  68 SW9       29.79F
COLUMBUS       MOSUNNY   76  60  57 SW17      29.74F
DAYTON         MOSUNNY   73  61  65 SW15      29.77S
WILMINGTON     CLOUDY    71  63  75 SW13      29.78F
HUNTINGTON     SUNNY     74  63  68 SW8       29.82S
CHARLESTON     CLOUDY    69  63  81 SW7       29.83R
PINEVILLE*     CLOUDY    72  62  71 MISG      29.93S
BECKLEY        PTSUNNY   68  56  65 W14       29.90S
BLUEFIELD      PTSUNNY   63  60  90 W8        29.93S
LOGAN CO APT*  CLOUDY    70  61  73 CALM      29.87S
$$

VAZ002-007-008-TNZ017-027-036-066-071-290000
...SOUTHWEST VIRGINIA/EAST TENNESSEE...

CITY           SKY/WX    TMP DP  RH WIND       PRES   REMARKS
WISE*          PTSUNNY   70  59  68 CALM      29.95S
JONESVILLE*      N/A     73  64  73 CALM      29.93S
ABINGDON*      CLOUDY    71  62  72 W10       29.93R
BRISTOL        CLOUDY    73  62  68 SW13      29.91S
MORRISTOWN*    PTCLDY    75  64  69 VRB7G13   29.90F
SEVIERVILLE*   PTCLDY    77  61  57 SW7       29.90S
LAFOLLETTE*    PTCLDY    77  63  61 SW7       29.93S
OAK RIDGE      CLOUDY    79  62  56 VRB5      29.91S
CROSSVILLE     SUNNY     73  60  63 W9        29.96R
NASHVILLE      PTSUNNY   78  62  57 W8        29.91S
$$

...KEY TO REMARKS...
VSB - VISIBILITY IN MILES
WCI - WIND CHILL INDEX
HX  - HEAT INDEX

$$




USA.gov is the U.S. government's official web portal to all federal, state and local government web resources and services.